Hazlehurst, GA

4:16 AM EDT on October 22, 2019 (GMT -0400)
Hazlehurst

Weather History for KAZE - August, 2019

Change the Weather History Date:

Sunday, August 18, 2019

  Actual Average Record
Temperature  
Mean Temperature 82 °F -  
Max Temperature 92 °F 99 °F 98 °F (2017)
Min Temperature 74 °F 77 °F 70 °F (2013)
Cooling Degree Days 18    
Growing Degree Days 32 (Base 50)    
Moisture  
Dew Point 72 °F    
Average Humidity 75    
Maximum Humidity 90    
Minimum Humidity 49    
Precipitation  
Precipitation 0.00 in - - ()
Sea Level Pressure  
Sea Level Pressure 30.04 in    
Wind  
Wind Speed 3 mph (SSW)    
Max Wind Speed 13 mph    
Max Gust Speed 20 mph    
Visibility 10 miles    
Events      
Averages and records for this station are not official NWS values.
T = Trace of Precipitation, MM = Missing Value Source: NWS Daily Summary

Daily Weather History Graph

Daily Weather History Graph

Search for Another Location

Airport or City:

Astronomy

Aug. 18, 2019 Rise Set
Actual Time 6:57 AM EDT 8:11 PM EDT
Civil Twilight 6:31 AM EDT 8:36 PM EDT
Nautical Twilight 6:01 AM EDT 9:07 PM EDT
Astronomical Twilight 5:29 AM EDT 9:38 PM EDT
Moon 10:15 PM EDT (8/18) 9:33 AM EDT (8/18)
Length of Visible Light 14h 05m
Length of Day
13h 14m
Waning Gibbous, 91% of the Moon is Illuminated
Aug 18
Waning Gibbous
Aug 23
Last Quarter
Aug 30
New
Sep 5
First Quarter
Sep 14
Full

Hourly Weather History & Observations

Time (EDT) Temp. Heat Index Dew Point Humidity Pressure Visibility Wind Dir Wind Speed Gust Speed Precip Events Conditions
12:10 AM 77.2 °F - 70.9 °F 81% 30.03 in 10.0 mi SSW 4.6 mph - N/A   Scattered Clouds
12:30 AM 76.8 °F - 70.7 °F 81% 30.03 in 10.0 mi SW 4.6 mph - N/A   Scattered Clouds
12:50 AM 76.5 °F - 70.7 °F 82% 30.03 in 10.0 mi SW 3.5 mph - N/A   Clear
1:10 AM 76.1 °F - 70.7 °F 83% 30.03 in 10.0 mi SW 3.5 mph - N/A   Clear
1:30 AM 76.1 °F - 70.7 °F 83% 30.03 in 10.0 mi SW 3.5 mph - N/A   Clear
1:50 AM 76.1 °F - 70.7 °F 83% 30.02 in 10.0 mi Calm Calm - N/A   Clear
2:10 AM 75.6 °F - 70.5 °F 84% 30.02 in 10.0 mi Calm Calm - N/A   Clear
2:30 AM 75.6 °F - 70.7 °F 85% 30.02 in 10.0 mi Calm Calm - N/A   Clear
2:50 AM 75.2 °F - 70.7 °F 86% 30.02 in 10.0 mi SW 3.5 mph - N/A   Clear
3:30 AM 75.4 °F - 70.7 °F 85% 30.02 in 10.0 mi Calm Calm - N/A   Overcast
3:50 AM 75.6 °F - 70.9 °F 85% 30.02 in 10.0 mi SW 4.6 mph - N/A   Overcast
4:10 AM 75.7 °F - 71.2 °F 86% 30.02 in 10.0 mi SW 3.5 mph - N/A   Overcast
4:30 AM 75.7 °F - 71.1 °F 85% 30.02 in 10.0 mi SSW 3.5 mph - N/A   Overcast
4:50 AM 75.6 °F - 71.2 °F 86% 30.02 in 10.0 mi SW 4.6 mph - N/A   Overcast
5:10 AM 75.2 °F - 70.9 °F 86% 30.01 in 10.0 mi SSW 4.6 mph - N/A   Overcast
5:30 AM 74.8 °F - 70.9 °F 87% 30.01 in 10.0 mi SSW 4.6 mph - N/A   Overcast
5:50 AM 74.8 °F - 71.2 °F 88% 30.01 in 10.0 mi SSW 4.6 mph - N/A   Overcast
6:10 AM 74.8 °F - 71.2 °F 88% 30.02 in 10.0 mi South 3.5 mph - N/A   Overcast
6:30 AM 74.5 °F - 71.1 °F 89% 30.02 in 10.0 mi South 4.6 mph - N/A   Overcast
6:50 AM 74.5 °F - 71.1 °F 89% 30.03 in 10.0 mi South 3.5 mph - N/A   Overcast
7:10 AM 74.7 °F - 71.4 °F 90% 30.03 in 10.0 mi Calm Calm - N/A   Overcast
7:30 AM 74.8 °F - 71.6 °F 90% 30.05 in 10.0 mi Calm Calm - N/A   Overcast
7:50 AM 75.2 °F - 71.8 °F 89% 30.05 in 5.0 mi Calm Calm - N/A   Overcast
8:10 AM 75.6 °F - 72.1 °F 89% 30.06 in 4.0 mi Calm Calm - N/A   Overcast
8:30 AM 75.7 °F - 72.5 °F 90% 30.06 in 5.0 mi Calm Calm - N/A   Overcast
8:50 AM 76.8 °F - 72.5 °F 86% 30.06 in 7.0 mi Calm Calm - N/A   Overcast
9:10 AM 77.5 °F - 72.1 °F 83% 30.07 in 10.0 mi Calm Calm - N/A   Overcast
9:30 AM 78.8 °F - 72.3 °F 80% 30.07 in 10.0 mi SW 3.5 mph - N/A   Overcast
9:50 AM 79.0 °F - 72.5 °F 80% 30.07 in 10.0 mi Calm Calm - N/A   Overcast
10:10 AM 80.2 °F 84.3 °F 72.3 °F 77% 30.08 in 10.0 mi Calm Calm - N/A   Overcast
10:30 AM 81.1 °F 85.8 °F 72.7 °F 75% 30.08 in 10.0 mi SSW 3.5 mph - N/A   Overcast
10:50 AM 82.8 °F 88.2 °F 72.7 °F 71% 30.07 in 10.0 mi South 3.5 mph - N/A   Overcast
11:10 AM 82.8 °F 88.2 °F 72.7 °F 71% 30.08 in 10.0 mi Calm Calm - N/A   Overcast
11:30 AM 82.8 °F 88.2 °F 72.5 °F 71% 30.08 in 10.0 mi SW 3.5 mph - N/A   Light Drizzle
11:50 AM 83.5 °F 89.1 °F 72.3 °F 69% 30.09 in 10.0 mi Calm Calm - N/A   Overcast
12:10 PM 85.1 °F 91.5 °F 72.7 °F 66% 30.08 in 10.0 mi SW 3.5 mph - N/A   Overcast
12:30 PM 86.0 °F 92.2 °F 72.1 °F 63% 30.08 in 10.0 mi Calm Calm - N/A   Overcast
12:50 PM 86.4 °F 92.2 °F 71.6 °F 61% 30.07 in 10.0 mi Calm Calm - N/A   Mostly Cloudy
1:10 PM 86.5 °F 92.5 °F 71.8 °F 61% 30.07 in 10.0 mi SW 3.5 mph - N/A   Overcast
1:30 PM 88.2 °F 94.1 °F 71.1 °F 57% 30.06 in 10.0 mi SSW 3.5 mph - N/A   Mostly Cloudy
1:50 PM 89.4 °F 94.8 °F 70.2 °F 53% 30.05 in 10.0 mi SSW 3.5 mph - N/A   Scattered Clouds
2:10 PM 89.1 °F 95.0 °F 71.1 °F 55% 30.05 in 10.0 mi SW 3.5 mph - N/A   Mostly Cloudy
2:30 PM 89.8 °F 96.5 °F 71.8 °F 55% 30.04 in 10.0 mi SW 8.1 mph - N/A   Mostly Cloudy
2:50 PM 89.8 °F 95.6 °F 70.7 °F 53% 30.04 in 10.0 mi SSW 5.8 mph - N/A   Scattered Clouds
3:10 PM 89.8 °F 95.1 °F 70.0 °F 52% 30.03 in 10.0 mi SSW 3.5 mph - N/A   Clear
3:30 PM 90.3 °F 95.7 °F 70.0 °F 51% 30.02 in 10.0 mi SW 3.5 mph - N/A   Clear
3:50 PM 91.0 °F 97.1 °F 70.3 °F 51% 30.01 in 10.0 mi WSW 5.8 mph - N/A   Clear
4:10 PM 91.4 °F 96.8 °F 70.0 °F 49% 30.01 in 10.0 mi SSE 6.9 mph - N/A   Clear
4:30 PM 90.3 °F 96.2 °F 70.5 °F 52% 30.01 in 10.0 mi South 5.8 mph - N/A   Mostly Cloudy
4:50 PM 86.4 °F 92.2 °F 71.4 °F 61% 30.02 in 10.0 mi SSW 12.7 mph 19.6 mph N/A   Overcast
5:10 PM 83.8 °F 88.9 °F 71.4 °F 66% 30.03 in 10.0 mi SSW 9.2 mph - N/A   Scattered Clouds
5:30 PM 83.5 °F 88.5 °F 71.4 °F 67% 30.02 in 10.0 mi South 5.8 mph - N/A   Scattered Clouds
6:10 PM 83.7 °F 88.6 °F 71.1 °F 66% 30.01 in 10.0 mi South 3.5 mph - N/A   Clear
6:30 PM 83.8 °F 89.5 °F 72.3 °F 68% 30.01 in 10.0 mi Calm Calm - N/A   Clear
6:50 PM 84.0 °F 89.9 °F 72.5 °F 68% 30.02 in 10.0 mi SSW 6.9 mph - N/A   Scattered Clouds
7:10 PM 83.3 °F 89.3 °F 73.0 °F 71% 30.02 in 10.0 mi SSW 4.6 mph - N/A   Scattered Clouds
7:30 PM 82.9 °F 88.8 °F 73.0 °F 72% 30.02 in 10.0 mi Calm Calm - N/A   Clear
7:50 PM 82.4 °F 87.9 °F 73.0 °F 73% 30.02 in 10.0 mi South 4.6 mph - N/A   Clear
8:10 PM 81.7 °F 86.7 °F 72.9 °F 74% 30.03 in 10.0 mi Calm Calm - N/A   Scattered Clouds
8:30 PM 81.1 °F 86.0 °F 72.9 °F 76% 30.03 in 10.0 mi South 3.5 mph - N/A   Scattered Clouds
8:50 PM 80.8 °F 85.6 °F 73.4 °F 78% 30.02 in 10.0 mi Calm Calm - N/A   Clear
9:10 PM 80.6 °F 85.4 °F 73.4 °F 79% 30.02 in 10.0 mi South 4.6 mph - N/A   Mostly Cloudy
9:30 PM 80.4 °F 85.0 °F 73.4 °F 79% 30.03 in 10.0 mi Calm Calm - N/A   Mostly Cloudy
9:50 PM 80.1 °F 84.2 °F 73.0 °F 79% 30.03 in 10.0 mi South 3.5 mph - N/A   Mostly Cloudy
10:10 PM 79.7 °F - 72.9 °F 80% 30.03 in 10.0 mi South 3.5 mph - N/A   Scattered Clouds
10:30 PM 79.2 °F - 72.9 °F 81% 30.03 in 10.0 mi SSW 3.5 mph - N/A   Clear
10:50 PM 79.0 °F - 72.7 °F 81% 30.04 in 10.0 mi SSW 6.9 mph - N/A   Clear
11:10 PM 78.6 °F - 72.0 °F 80% 30.04 in 10.0 mi SSW 5.8 mph - N/A   Clear
11:30 PM 78.1 °F - 71.8 °F 81% 30.04 in 10.0 mi SSW 4.6 mph - N/A   Clear
11:50 PM 77.9 °F - 71.6 °F 81% 30.04 in 10.0 mi South 4.6 mph - N/A   Scattered Clouds